Hourly Data Report for October 13, 2015

All times are specified in Local Standard Time (LST). Add 1 hour to adjust for Daylight Saving Time where and when it is observed.

GJOA HAVEN A
NUNAVUT

68°38'08.000" N
95°51'01.000" W
46.90 m
2302337
71597
YHK

Download Data

Hourly Data (October 2015)
Hourly Data Report for October 13, 2015
Temp Definition
°C
Dew Point Temp Definition
°C
Rel Hum Definition
%
Wind Dir Definition
10's deg

Wind Spd Definition
km/h
Visibility Definition
km
Stn Press Definition
kPa
Hmdx Definition


Wind Chill Definition


Weather Definition


TIME
00:00 Legend Double Dagger -8.2 -9.0 94 27 15 16.1 99.48   -15 Snow
01:00 Legend Double Dagger -7.5 -8.2 95 28 15 9.7 99.46   -14 Snow
02:00 Legend Double Dagger -7.2 -8.1 93 31 17 11.3 99.45   -14 Snow
03:00 Legend Double Dagger -6.6 -8.4 87 33 24 16.1 99.45   -14 Snow
04:00 Legend Double Dagger -6.6 -7.7 92 33 24 16.1 99.46   -14 Snow
05:00 Legend Double Dagger -7.9 -8.8 93 31 18 16.1 99.47   -15 Snow
06:00 Legend Double Dagger -6.2 -7.0 94 33 30 16.1 99.42   -15 Snow
07:00 Legend Double Dagger -8.3 -8.9 96 34 28 6.4 99.44   -17 Snow
08:00 Legend Double Dagger -6.5 -6.9 97 34 32 8.1 99.48   -15 Fog
09:00 Legend Double Dagger -7.2 -8.0 94 33 37 8.1 99.54   -17 Snow
10:00 Legend Double Dagger -6.7 -7.8 92 33 41 9.7 99.59   -16 Snow
11:00 Legend Double Dagger -7.7 -8.9 91 33 41 4.0 99.63   -18 Snow
12:00 Legend Double Dagger -7.7 -8.9 91 33 37 9.7 99.68   -17 Fog
13:00 Legend Double Dagger -7.9 -9.4 89 33 39 11.3 99.72   -18 LegendNANA
14:00 Legend Double Dagger -8.3 -10.1 87 33 39 16.1 99.78   -18 Snow
15:00 Legend Double Dagger -8.7 -10.6 86 34 35 16.1 99.83   -18 Snow
16:00 Legend Double Dagger -9.0 -10.8 87 34 34 16.1 99.87   -19 Snow
17:00 Legend Double Dagger -9.2 -11.1 86 33 37 16.1 99.91   -19 Snow
18:00 Legend Double Dagger -9.2 -10.7 89 32 35 16.1 99.94   -19 Snow
19:00 Legend Double Dagger -9.3 -10.8 89 32 30 12.9 99.96   -19 Snow
20:00 Legend Double Dagger -9.3 -10.9 88 32 30 16.1 99.98   -19 Snow
21:00 Legend Double Dagger -9.6 -11.4 87 33 28 16.1 100.00   -19 Snow
22:00 Legend Double Dagger -9.7 -11.3 88 32 30 14.5 100.03   -19 Snow
23:00 Legend Double Dagger -9.9 -11.5 88 32 32 16.1 100.05   -20 Snow

Notes on Data Quality.

Legend

  • E = Estimated
  • M = Missing
  • NA = Not Available
  • ‡ = Partner data that is not subject to review by the National Climate Archives
Date modified: